Weather History for KEIK - April, 2012

Change the Weather History Date:

Monday, April 2, 2012

  Actual Average (KDEN) Record (KDEN)
Temperature  
Mean Temperature 50 °F 44 °F  
Max Temperature 57 °F 59 °F 84 °F (2011)
Min Temperature 42 °F 30 °F -2 °F (1975)
Degree Days  
Heating Degree Days 16 21  
Month to date heating degree days 42  
Since 1 July heating degree days 5244  
Cooling Degree Days 0 0  
Month to date cooling degree days 0  
Year to date cooling degree days 0  
Moisture  
Dew Point 30 °F    
Average Humidity 49    
Maximum Humidity 61    
Minimum Humidity 25    
Precipitation  
Precipitation 0.00 in 0.03 in 1.11 in (1957)
Month to date precipitation 0.07  
Year to date precipitation 1.77  
Snow  
Snow 0.00 in - - ()
Month to date snowfall  
Since 1 July snowfall  
Snow Depth -    
Sea Level Pressure  
Sea Level Pressure 29.68 in    
Wind  
Wind Speed 19 mph (NNE)    
Max Wind Speed 29 mph    
Max Gust Speed 38 mph    
Visibility 10 miles    
Events      
T = Trace of Precipitation, MM = Missing Value Source: NWS Daily Summary

Daily Weather History Graph

Daily Weather History Graph

Search for Another Location

Airport or City:

Trip Planner

Search our weather history database for the weather conditions in past years. The results will help you decide how hot, cold, wet, or windy it might be!

Date:

Astronomy

Apr. 02, 2012 Rise Set
Actual Time 6:41 AM MDT 7:26 PM MDT
Civil Twilight 6:14 AM MDT 7:53 PM MDT
Nautical Twilight 5:41 AM MDT 8:25 PM MDT
Astronomical Twilight 5:08 AM MDT 8:59 PM MDT
Moon 3:04 PM MDT (4/2) 3:56 AM MDT (4/2)
Length of Visible Light 13h 39m
Length of Day
12h 44m
Waxing Gibbous, 79% of the Moon is Illuminated
Apr 2
Waxing Gibbous
Apr 6
Full
Apr 13
Last Quarter
Apr 21
New
Apr 29
First Quarter

Hourly Weather History & Observations

Time (MDT) Temp. Windchill Dew Point Humidity Pressure Visibility Wind Dir Wind Speed Gust Speed Precip Events Conditions
12:34 AM 57.2 °F - 21.2 °F 25% 29.47 in 10.0 mi NE 13.8 mph - N/A   Clear
12:54 AM 57.2 °F - 23.0 °F 27% 29.49 in 10.0 mi NE 20.7 mph 29.9 mph N/A   Clear
1:14 AM 55.4 °F - 24.8 °F 31% 29.50 in 7.0 mi NNE 28.8 mph 38.0 mph N/A   Clear
1:34 AM 55.4 °F - 28.4 °F 36% 29.53 in 7.0 mi NNE 28.8 mph 36.8 mph N/A   Clear
1:54 AM 55.4 °F - 30.2 °F 38% 29.54 in 10.0 mi NNE 26.5 mph 36.8 mph N/A   Clear
2:14 AM 53.6 °F - 30.2 °F 41% 29.54 in 10.0 mi NNE 24.2 mph 34.5 mph N/A   Clear
2:34 AM 53.6 °F - 30.2 °F 41% 29.56 in 10.0 mi NNE 20.7 mph 29.9 mph N/A   Clear
2:54 AM 53.6 °F - 30.2 °F 41% 29.58 in 10.0 mi NNE 19.6 mph 26.5 mph N/A   Clear
3:14 AM 53.6 °F - 30.2 °F 41% 29.58 in 10.0 mi NNE 18.4 mph 25.3 mph N/A   Clear
3:34 AM 51.8 °F - 30.2 °F 44% 29.60 in 10.0 mi NNE 16.1 mph 24.2 mph N/A   Clear
3:54 AM 50.0 °F - 32.0 °F 50% 29.62 in 10.0 mi NNE 10.4 mph 19.6 mph N/A   Clear
4:14 AM 48.2 °F - 32.0 °F 54% 29.63 in 10.0 mi NNE 10.4 mph - N/A   Clear
4:34 AM 46.4 °F 41.9 °F 30.2 °F 53% 29.65 in 10.0 mi NE 9.2 mph - N/A   Clear
4:54 AM 46.4 °F 41.5 °F 30.2 °F 53% 29.67 in 10.0 mi NNE 10.4 mph - N/A   Clear
5:14 AM 46.4 °F 41.1 °F 30.2 °F 53% 29.68 in 10.0 mi NNE 11.5 mph - N/A   Scattered Clouds
5:34 AM 46.4 °F 40.7 °F 30.2 °F 53% 29.69 in 10.0 mi NE 12.7 mph - N/A   Overcast
5:54 AM 46.4 °F 39.5 °F 30.2 °F 53% 29.71 in 10.0 mi NE 17.3 mph 24.2 mph N/A   Overcast
6:14 AM 46.4 °F 38.7 °F 30.2 °F 53% 29.72 in 10.0 mi NE 20.7 mph 31.1 mph N/A   Overcast
6:34 AM 46.4 °F 39.5 °F 30.2 °F 53% 29.73 in 10.0 mi NE 17.3 mph 31.1 mph N/A   Overcast
6:54 AM 46.4 °F 39.2 °F 30.2 °F 53% 29.75 in 10.0 mi NE 18.4 mph 26.5 mph N/A   Overcast
7:14 AM 46.4 °F 39.2 °F 30.2 °F 53% 29.76 in 10.0 mi NE 18.4 mph 25.3 mph N/A   Overcast
7:34 AM 44.6 °F 36.6 °F 30.2 °F 57% 29.78 in 10.0 mi NNE 19.6 mph 26.5 mph N/A   Overcast
7:54 AM 44.6 °F 36.9 °F 30.2 °F 57% 29.80 in 10.0 mi NNE 18.4 mph 24.2 mph N/A   Overcast
8:14 AM 44.6 °F 37.2 °F 30.2 °F 57% 29.82 in 10.0 mi NNE 17.3 mph 28.8 mph N/A   Overcast
8:34 AM 44.6 °F 36.1 °F 30.2 °F 57% 29.82 in 10.0 mi NNE 21.9 mph 32.2 mph N/A   Overcast
8:54 AM 42.8 °F 33.3 °F 30.2 °F 61% 29.83 in 10.0 mi NNE 24.2 mph 33.4 mph N/A   Overcast
9:14 AM 42.8 °F 34.3 °F 30.2 °F 61% 29.84 in 10.0 mi NNE 19.6 mph 26.5 mph N/A   Overcast
9:34 AM 42.8 °F 34.3 °F 30.2 °F 61% 29.87 in 10.0 mi NNE 19.6 mph 27.6 mph N/A   Overcast
9:54 AM 42.8 °F 34.0 °F 30.2 °F 61% 29.89 in 10.0 mi NNE 20.7 mph 26.5 mph N/A   Overcast
9:58 AM 42.8 °F 34.3 °F 30.2 °F 61% 29.89 in 10.0 mi NNE 19.6 mph 29.9 mph N/A   Overcast